Wind_Speed
56 57 57 57 57 57 57 57 57 56 56 55 55 53 53 52 51 49 48 46 44 43 42 41 41 43 45 46 44 43 42 41 41 40 37 37 38 38 37 35 35 35 34 34 34 34 34 33 33 32 32 30 30 30 30 30 29 26 23 23 24 26 29 28 28 28 27 27 28 30 30 31 31 30 29 27 26 27 28 29 28 23 20 18 17 18 21 23
56 57 57 58 58 58 58 58 57 57 57 56 56 55 54 53 52 51 49 48 46 44 43 42 41 42 45 46 45 44 43 43 42 40 38 40 40 38 37 36 37 36 35 34 35 35 35 35 34 33 32 31 31 31 31 31 29 25 24 24 26 28 29 28 28 28 28 28 29 30 30 30 31 30 28 27 27 27 28 28 25 21 20 19 19 20 21 23
56 57 57 58 58 58 58 58 58 58 57 57 57 56 55 55 54 53 51 50 48 46 45 43 42 42 44 46 46 45 44 44 42 39 40 42 40 38 37 37 37 37 36 36 35 36 36 36 35 34 33 32 32 32 31 30 28 25 25 26 28 30 29 29 28 28 29 29 29 29 29 29 30 29 28 28 27 28 28 26 23 22 22 22 21 22 22 22
55 56 57 58 58 58 58 58 58 58 57 57 57 56 56 56 55 54 52 51 50 48 46 45 43 43 44 45 46 45 45 45 42 39 41 42 40 37 38 38 37 37 37 36 36 36 36 35 34 33 33 32 32 31 30 29 27 26 27 28 30 31 30 29 28 28 28 28 28 28 28 28 29 30 29 28 28 28 26 22 22 23 23 24 23 23 22 23
54 55 56 57 58 59 59 58 58 58 57 57 57 57 56 56 56 55 54 52 51 49 47 46 45 44 44 45 46 45 46 46 43 40 41 43 40 37 38 37 37 37 37 36 36 35 35 34 33 33 32 31 30 29 28 27 26 26 29 32 33 31 30 29 29 29 28 27 27 27 27 27 28 29 28 27 26 25 22 20 22 25 25 25 23 22 22 23
55 55 56 57 58 58 59 59 58 58 57 57 57 57 56 56 56 55 54 53 52 50 48 47 46 45 44 45 46 46 47 46 44 42 42 43 40 37 38 37 36 37 36 36 35 34 34 33 33 31 30 30 29 27 27 28 27 28 31 33 32 31 30 30 30 29 28 27 26 26 25 25 26 26 26 23 22 21 20 21 23 25 25 24 23 22 23 24
56 57 57 57 58 58 59 59 59 58 58 57 57 56 56 55 55 55 54 53 52 51 49 48 47 46 45 46 46 47 47 45 44 43 43 44 41 38 38 36 36 36 35 35 34 33 33 32 31 30 30 30 29 29 30 30 28 29 32 32 30 30 31 30 29 28 27 26 26 25 25 25 25 25 23 20 20 20 21 22 23 24 25 24 23 22 24 25
57 58 58 58 59 59 59 59 59 58 58 57 56 55 54 54 54 53 53 53 52 50 50 49 48 46 45 46 46 47 46 44 45 45 44 45 42 40 39 37 36 36 35 34 33 33 32 32 31 30 30 29 29 31 33 32 29 29 29 30 30 30 30 29 28 27 25 25 25 24 25 25 24 23 22 19 19 21 21 22 22 24 25 24 23 22 23 25
57 58 59 58 58 59 59 59 58 57 57 56 55 54 53 53 52 52 52 51 51 50 50 49 48 47 46 45 47 47 44 44 46 46 45 46 43 41 40 38 37 36 35 34 34 33 32 32 30 30 31 30 32 35 35 32 28 27 29 31 31 30 29 27 27 26 26 25 24 23 22 21 22 23 22 19 19 20 21 22 23 24 24 23 22 21 22 26
57 57 58 57 57 56 56 57 56 55 55 54 53 52 52 51 50 50 50 50 50 49 49 49 48 47 46 46 47 46 44 46 47 45 46 46 44 42 40 39 38 37 36 35 35 33 32 31 31 32 33 34 35 37 36 31 27 28 31 32 31 29 28 28 27 26 27 25 22 20 19 20 25 25 22 21 20 21 21 21 22 23 23 22 22 21 23 27
56 55 55 55 55 54 53 53 53 52 51 51 50 49 49 49 49 49 49 49 48 48 49 48 48 47 47 46 46 44 44 47 47 46 47 46 44 43 42 40 38 37 37 36 35 34 32 33 33 34 35 36 37 37 33 29 28 30 32 31 29 28 28 26 24 25 25 22 18 19 21 24 26 25 23 22 21 21 21 20 21 21 21 21 22 23 25 27
54 53 53 53 52 51 50 49 49 48 47 47 46 46 47 47 47 47 47 47 47 48 48 48 48 47 47 46 44 44 45 47 47 47 47 46 45 43 42 41 39 38 37 36 35 34 34 35 36 36 37 37 37 35 31 29 29 30 31 30 28 26 24 22 22 22 21 18 18 21 24 25 24 22 23 22 20 19 19 19 20 21 22 22 24 25 26 27
52 51 50 50 49 48 47 46 45 44 44 43 43 44 44 44 45 45 45 46 46 47 47 47 47 46 47 44 42 45 47 48 47 47 47 46 44 42 41 40 40 39 38 38 37 36 36 37 38 38 38 37 36 33 30 29 29 30 30 28 24 22 20 21 22 20 19 19 20 23 23 22 21 21 21 19 19 18 18 20 21 22 23 24 24 26 26 27
49 48 47 46 45 44 43 42 42 41 41 40 41 41 42 43 43 44 44 44 45 46 46 46 46 46 45 42 43 47 47 47 46 45 46 46 44 42 40 40 40 40 40 39 38 38 39 39 38 38 37 36 34 32 29 28 29 30 28 24 22 20 20 21 21 20 21 22 22 22 20 19 19 19 19 18 18 19 19 21 22 22 22 22 24 25 25 26
44 43 42 42 41 40 39 39 38 38 38 38 39 39 41 41 42 42 43 43 43 44 44 45 45 45 43 41 44 47 45 45 44 43 45 46 44 42 41 40 41 41 41 40 39 40 40 39 37 37 36 34 32 31 29 29 30 30 26 22 21 20 21 23 23 22 23 22 20 19 19 19 19 18 19 19 19 20 22 23 22 20 19 20 22 23 23 24
40 39 39 38 37 36 36 36 36 36 36 37 37 39 40 40 41 41 42 42 42 43 43 43 43 43 41 41 45 45 43 43 43 44 46 46 45 43 43 42 41 42 42 41 41 40 39 38 37 36 35 33 33 32 30 30 29 28 24 21 21 23 26 27 26 25 25 21 17 17 19 19 19 19 20 21 21 23 24 23 20 18 18 19 20 21 22 23
35 35 35 34 33 33 33 34 35 35 35 35 37 38 39 39 40 40 41 41 41 41 41 41 41 42 40 41 44 43 41 43 45 46 46 46 45 44 43 43 42 43 43 43 42 39 38 37 37 36 34 33 33 31 31 29 26 24 22 22 26 30 30 28 27 27 26 21 16 16 19 20 20 21 21 22 23 24 23 20 18 17 17 18 19 21 22 22
31 31 31 31 30 30 32 33 33 33 33 34 36 37 37 38 39 39 39 40 40 40 40 40 41 41 39 40 42 41 41 44 47 46 46 47 46 45 44 43 43 44 44 43 41 38 37 36 35 35 34 32 31 29 28 24 22 24 25 28 33 33 31 29 29 28 27 24 20 19 19 18 20 21 22 23 23 22 20 17 15 15 15 17 19 21 22 20
27 28 29 29 28 29 31 31 32 32 32 33 34 35 35 36 37 37 38 39 39 38 37 38 38 38 37 39 41 42 42 45 49 47 45 47 47 45 45 45 44 44 43 42 40 38 36 35 35 34 33 31 29 27 26 24 25 29 31 33 35 34 31 30 30 29 29 27 22 20 19 17 19 21 22 22 22 22 19 15 13 14 14 15 18 21 19 16
23 25 28 28 26 27 30 30 31 31 30 32 32 32 33 34 35 35 36 37 35 35 35 36 37 38 39 41 41 41 41 44 49 48 45 47 47 46 46 46 45 44 43 41 40 39 37 36 35 33 32 31 29 29 29 29 31 34 35 35 35 34 32 30 31 31 31 27 21 19 19 18 19 20 21 22 21 21 18 16 14 15 15 15 16 17 14 13
22 24 25 28 27 26 29 29 30 30 29 30 30 31 32 33 34 34 34 34 33 34 34 34 36 37 39 40 40 40 39 40 46 46 45 47 47 45 45 45 45 44 42 41 41 40 38 38 36 33 32 32 32 32 31 32 35 36 35 35 33 32 32 32 33 32 30 25 21 20 20 20 20 18 20 22 21 20 19 17 15 15 16 16 14 13 13 15
21 22 23 28 27 25 29 28 28 29 28 29 30 31 32 32 32 32 32 32 32 32 32 33 35 35 38 39 38 39 39 39 43 45 45 48 47 45 44 43 43 42 41 41 41 40 40 39 35 33 34 34 34 34 34 35 36 36 35 33 31 31 32 33 32 31 28 26 24 22 21 21 20 19 21 23 21 20 19 17 16 17 18 17 15 14 15 17
20 22 24 28 26 23 27 27 26 28 29 29 30 31 31 30 30 31 31 31 30 32 32 32 31 33 36 37 36 38 38 38 41 43 44 47 47 45 44 42 40 39 39 40 40 41 40 36 33 33 34 34 34 34 34 35 36 36 33 30 30 31 32 32 31 30 29 27 26 23 21 22 21 22 24 24 21 20 18 17 17 18 19 19 17 16 17 19
21 22 24 27 26 24 27 28 26 28 30 30 30 31 31 30 29 29 29 30 30 31 31 31 31 33 36 36 34 37 39 39 40 42 42 44 45 44 43 41 38 37 38 38 39 39 35 31 32 34 35 35 34 34 34 35 35 34 31 30 31 32 32 32 32 31 30 28 26 23 21 23 25 24 22 20 18 18 18 17 18 19 20 20 20 19 19 21
21 22 24 27 27 27 28 29 29 30 30 30 30 30 31 29 28 28 29 30 31 31 32 33 33 34 37 37 34 36 40 41 40 40 39 39 40 41 40 39 37 38 38 38 38 35 30 31 35 37 37 35 33 33 34 34 34 32 31 32 32 32 32 33 33 32 30 27 26 24 23 24 25 20 16 16 16 17 19 18 19 21 22 21 21 20 21 22
21 22 25 28 29 29 27 28 31 30 29 29 28 29 30 29 28 30 31 31 31 32 32 33 31 32 37 37 33 36 40 39 39 38 36 36 36 36 37 37 37 37 37 37 35 32 31 35 37 37 36 35 34 34 35 35 35 33 33 33 33 33 34 34 33 31 30 27 26 26 24 23 23 16 14 15 18 18 20 21 22 23 22 21 21 21 23 24
21 22 24 28 29 28 26 29 31 30 28 28 28 28 30 30 30 32 31 29 29 30 31 31 29 31 34 32 31 35 36 36 39 38 34 35 36 35 36 36 36 36 37 37 34 32 34 36 36 35 34 34 34 35 35 36 36 34 33 34 34 35 35 34 33 31 30 28 27 27 25 23 22 18 16 18 20 22 23 23 23 23 21 21 21 22 24 25
19 19 21 25 27 27 28 29 30 28 27 27 27 29 30 31 32 32 30 27 26 29 30 29 30 30 29 30 31 31 30 31 35 34 33 34 36 36 36 36 35 34 36 35 31 32 35 34 34 34 34 33 33 33 35 37 36 34 34 35 36 36 35 35 33 31 30 29 28 28 27 25 24 23 20 20 22 24 24 23 22 22 22 21 21 21 22 23
17 18 21 24 27 27 27 28 27 25 25 26 28 30 31 32 32 30 29 25 23 26 28 29 30 29 28 31 30 28 28 29 29 28 30 33 36 36 35 34 34 34 34 31 29 32 34 33 33 34 34 32 31 34 36 37 36 35 35 36 37 37 36 34 33 32 31 30 29 30 29 27 27 26 24 22 21 22 23 23 23 23 23 21 21 21 21 21
17 19 21 24 26 26 26 26 25 25 27 29 31 31 31 32 31 29 28 24 21 24 28 28 28 27 28 30 30 30 30 28 27 30 30 30 33 35 35 34 35 36 34 31 31 34 35 35 36 36 35 33 33 36 37 37 37 37 36 37 37 36 35 34 33 33 32 31 31 32 30 29 30 28 25 23 22 22 23 24 23 23 24 23 23 22 22 22
17 19 21 24 25 24 24 24 26 28 30 31 32 31 31 31 30 29 27 23 20 22 26 27 27 27 26 25 27 30 31 28 30 33 33 32 33 34 35 36 36 37 35 33 34 36 36 37 37 35 34 34 34 36 37 38 37 37 37 37 36 35 35 35 35 35 34 33 32 32 31 31 31 29 27 26 25 25 24 24 23 23 24 25 24 23 23 23
17 19 21 23 24 23 24 27 30 32 31 31 31 30 30 29 29 27 25 23 20 20 24 24 24 25 22 22 24 27 29 30 32 33 34 35 35 35 35 35 36 36 35 35 35 35 36 37 35 34 34 34 35 35 36 36 35 35 35 35 35 35 36 38 39 38 36 35 34 32 32 33 32 30 30 30 29 26 23 22 22 22 23 24 23 23 23 24
18 20 21 23 24 24 27 30 32 32 30 30 30 30 30 27 26 25 23 23 21 19 22 21 20 22 22 24 25 26 29 30 31 31 32 35 35 34 34 34 34 33 32 33 34 34 35 35 34 33 33 34 36 36 35 35 34 33 33 33 34 36 38 41 42 40 38 38 36 34 34 34 33 32 33 34 32 27 22 21 22 22 22 23 23 23 23 24
19 20 21 24 26 27 30 32 32 31 30 30 29 30 28 25 23 23 22 23 23 23 24 23 23 24 24 24 25 28 30 30 30 30 31 33 35 35 35 35 35 33 31 31 32 33 33 34 34 34 34 35 36 35 34 32 32 33 33 34 36 38 40 42 43 41 40 40 39 36 35 36 36 35 36 36 31 25 22 21 21 21 22 23 23 22 22 22
20 21 23 26 28 29 31 32 32 32 31 30 30 28 26 24 24 24 23 24 26 28 28 26 27 27 25 25 25 25 25 25 27 29 29 30 30 33 35 36 37 34 32 34 35 34 34 33 33 34 35 35 35 34 34 33 33 33 35 35 36 39 40 41 42 42 41 41 40 38 38 38 38 36 36 34 28 22 21 20 20 20 20 21 21 21 21 21
21 23 25 27 30 31 32 33 33 32 31 30 28 26 25 24 25 25 24 24 26 31 30 28 29 29 27 26 25 23 23 24 25 26 26 24 24 27 31 33 34 33 32 34 36 35 34 33 32 33 33 33 32 32 33 33 32 32 34 36 36 38 39 40 41 41 41 40 38 37 38 38 37 35 34 32 26 20 18 18 19 19 19 20 19 19 19 20
22 24 25 28 31 32 32 33 33 32 31 29 27 25 25 26 26 27 25 23 26 31 30 29 30 30 28 26 24 25 26 26 27 24 23 24 24 26 29 30 31 30 30 32 33 33 32 31 31 31 30 29 29 29 28 27 28 30 30 31 32 35 38 38 38 38 38 37 35 35 36 36 35 34 32 30 25 20 18 17 18 18 18 19 19 18 19 19
22 23 26 30 33 33 32 32 32 32 31 29 28 26 26 27 28 29 26 23 26 29 28 27 30 30 28 24 24 26 27 26 26 24 23 24 25 27 29 29 29 28 29 31 32 32 31 31 30 30 28 26 26 26 26 26 28 28 26 25 27 30 33 35 36 36 35 35 35 35 35 34 33 32 31 29 25 21 20 18 17 17 18 18 17 17 17 18
22 23 26 31 34 33 32 32 32 32 31 30 30 28 28 29 30 30 27 25 28 29 27 27 29 30 29 27 27 27 27 25 24 23 23 24 25 27 29 30 29 29 30 33 33 32 31 32 31 29 28 26 25 26 27 28 28 25 24 27 28 28 30 32 33 34 33 33 35 34 33 32 31 29 29 28 25 21 19 18 17 17 17 16 16 16 16 18
22 24 26 29 32 33 33 32 32 31 31 32 31 30 29 31 32 30 28 28 29 29 28 29 30 31 31 30 30 29 27 26 24 23 24 26 26 27 28 29 30 31 32 34 34 33 33 34 32 30 28 27 27 28 27 27 26 23 24 28 30 30 30 30 30 31 30 29 30 31 30 29 27 27 27 26 24 21 19 18 16 16 16 16 16 17 18 20
23 25 26 28 30 31 32 32 31 31 32 33 32 31 31 32 32 31 29 30 30 29 29 30 30 31 31 30 29 29 27 27 27 26 27 28 27 26 27 28 30 32 33 33 34 34 34 35 33 31 31 30 29 29 28 27 27 25 25 28 31 31 30 29 28 28 27 26 26 27 26 25 24 25 25 24 22 20 18 17 15 15 16 16 17 17 18 20
24 25 26 27 28 29 30 30 30 32 33 33 33 32 32 32 33 31 30 31 31 30 29 29 30 31 31 30 28 27 27 28 29 29 28 28 27 26 27 28 29 31 32 33 34 34 35 35 33 31 33 34 31 29 27 25 27 27 27 29 31 31 31 29 27 26 26 26 26 25 24 24 24 24 23 22 20 17 16 15 15 16 16 17 17 18 18 19
24 25 26 27 28 28 28 29 31 32 33 33 34 33 32 33 34 32 32 33 34 33 30 29 29 30 31 30 29 28 29 30 30 28 26 26 27 26 26 28 28 30 31 33 34 35 35 36 33 30 32 35 33 30 26 24 26 28 28 29 31 31 31 29 27 25 25 25 25 25 25 24 24 23 22 20 17 15 14 14 15 16 16 16 16 17 17 18
25 25 26 27 28 28 29 30 31 33 34 35 35 34 34 35 36 34 34 35 35 34 32 30 29 29 30 31 30 30 30 31 31 29 25 24 25 26 25 26 28 29 31 32 34 35 36 37 34 30 31 35 34 31 28 27 27 28 29 29 30 31 31 29 27 26 24 24 25 24 24 24 24 23 22 20 17 15 15 15 15 14 14 14 14 15 17 17
23 23 26 28 28 30 30 31 32 34 36 36 36 36 36 38 39 37 36 37 37 35 33 30 29 29 29 30 31 32 31 29 29 30 27 24 25 26 25 25 27 29 31 32 33 34 35 36 36 33 32 34 34 31 30 30 29 28 28 29 30 31 31 29 28 27 25 24 24 24 24 24 23 22 21 21 19 17 17 17 15 12 11 11 11 12 15 16
21 20 25 28 29 30 31 33 34 36 36 37 37 37 37 39 40 38 37 37 36 35 33 29 28 29 30 30 30 31 31 29 27 26 26 25 25 25 25 25 27 29 31 32 32 34 35 35 36 35 32 31 30 29 29 30 30 29 27 28 30 31 31 30 30 29 27 26 26 26 25 24 23 22 22 22 20 19 19 18 17 14 13 13 12 12 13 14
22 21 25 28 30 32 33 35 37 37 36 36 37 37 37 39 39 38 38 37 35 34 33 30 28 29 30 31 30 29 29 28 26 24 25 24 24 24 24 24 25 28 31 32 32 33 34 35 36 36 34 31 30 30 31 31 31 31 29 28 29 31 32 33 31 30 29 29 28 28 27 26 25 24 25 24 22 21 20 20 19 18 17 16 16 15 14 14
23 24 27 29 32 35 37 38 38 38 37 37 38 37 36 38 39 37 36 35 33 32 31 29 29 30 31 32 31 30 29 28 26 25 25 24 23 23 23 23 24 27 29 31 32 32 32 33 35 36 36 35 33 33 33 31 30 30 30 29 29 31 33 34 33 32 32 32 31 30 29 28 26 26 26 25 23 21 20 21 21 21 20 19 18 17 16 16
23 24 27 30 32 35 38 38 37 36 36 35 35 34 34 36 38 36 34 32 31 30 29 29 28 29 30 31 31 30 29 28 27 27 26 26 24 23 23 23 24 25 27 28 30 31 31 31 33 34 36 36 35 35 35 34 32 31 31 30 29 30 31 32 33 34 34 33 32 31 30 28 27 26 25 23 21 19 18 18 18 20 21 21 20 19 19 18
25 26 27 30 31 34 35 34 33 32 32 31 30 30 30 33 34 34 32 30 29 29 29 29 29 29 29 29 29 30 30 29 28 28 28 27 26 25 24 23 23 25 26 27 28 30 31 31 32 32 33 35 35 35 35 35 35 34 33 32 31 31 31 30 31 33 33 33 32 31 30 28 26 25 25 23 21 19 17 15 15 16 16 17 18 19 20 20
27 29 30 30 30 31 30 29 28 28 28 26 25 25 25 27 30 31 31 30 29 29 29 30 31 31 31 30 29 29 29 29 29 28 28 28 27 27 26 24 23 24 25 26 28 29 30 31 31 31 32 33 33 33 33 34 35 36 36 35 34 34 33 32 31 31 31 31 31 30 29 27 26 25 25 24 23 22 20 19 19 19 17 17 18 19 20 21
29 31 31 30 29 29 28 27 26 27 26 25 24 24 24 24 27 28 28 28 29 29 28 28 29 30 31 31 30 29 29 29 30 30 29 29 29 28 28 27 26 25 25 26 27 30 32 33 32 31 32 32 31 30 29 29 31 33 35 36 37 36 34 33 32 32 31 30 31 30 30 28 27 27 26 26 25 24 23 22 22 23 23 22 21 22 22 23
Wind_Direction
263 262 261 260 259 258 256 255 255 254 254 254 254 255 255 255 255 254 254 253 253 252 252 250 246 241 239 238 239 241 242 242 240 237 235 233 231 229 230 229 229 228 226 227 227 228 228 229 230 232 234 236 239 242 243 245 246 247 248 245 242 242 245 246 247 248 249 250 251 253 255 256 259 260 261 261 260 259 259 260 264 268 270 269 268 268 270 273
263 262 262 261 260 258 257 256 255 254 254 254 254 255 255 255 255 254 254 254 253 252 252 251 248 242 238 237 238 239 240 240 239 237 235 233 230 228 229 228 228 227 225 225 226 227 227 228 230 232 234 236 239 242 244 245 246 246 245 242 240 241 243 245 246 247 248 249 251 254 256 259 261 262 262 261 260 259 258 259 263 268 267 265 265 265 267 269
264 263 262 261 260 259 258 257 255 254 254 254 254 254 255 255 255 255 254 253 253 252 251 250 249 244 239 236 237 237 238 238 237 237 236 233 230 228 228 227 227 227 226 225 226 227 228 229 231 233 236 238 240 242 244 246 245 245 244 243 241 241 243 243 243 244 246 249 252 255 258 261 263 264 263 261 260 259 259 260 263 265 264 264 264 266 268 271
266 264 263 262 261 260 259 257 256 255 255 255 255 255 255 255 255 255 254 253 253 252 251 250 248 245 240 236 236 236 236 236 235 236 236 233 230 228 228 227 227 227 226 226 227 227 229 230 232 235 237 239 241 243 245 245 245 244 243 242 241 241 241 240 241 243 245 249 252 256 259 262 263 264 263 262 261 260 261 261 260 260 261 264 266 268 271 273
267 266 264 262 261 260 259 258 257 256 256 255 255 255 255 255 255 254 254 253 252 252 250 249 247 245 241 236 235 235 235 234 234 235 235 233 229 227 228 227 227 227 226 226 227 228 229 230 232 234 236 238 240 242 244 244 244 242 240 241 242 242 241 241 242 244 246 248 252 255 259 262 264 265 265 266 266 264 262 256 253 255 258 262 266 268 269 272
267 266 264 263 261 260 259 258 257 256 256 256 255 255 254 254 254 254 253 253 252 251 249 247 246 244 241 236 233 233 233 233 233 233 234 232 229 227 227 226 226 226 226 226 226 227 228 229 230 231 233 236 238 240 241 241 240 238 239 242 243 244 243 243 243 245 246 248 251 254 257 259 261 263 265 268 267 261 253 248 249 253 258 261 265 267 267 268
267 266 264 263 261 260 258 257 257 256 256 255 255 255 254 253 253 253 252 252 251 250 248 246 244 243 240 236 233 231 232 232 233 232 232 231 229 226 226 226 225 225 224 224 224 224 225 226 228 229 232 235 236 238 239 238 237 236 240 242 243 244 244 244 245 246 246 248 251 253 255 256 257 259 260 261 257 252 247 245 248 252 257 260 263 264 265 267
267 266 265 263 261 259 258 256 255 255 254 254 254 253 252 252 252 251 251 250 249 248 246 245 243 241 239 236 232 230 230 232 232 230 231 230 228 226 226 225 225 224 223 223 222 222 223 225 227 229 232 234 235 236 237 236 233 234 240 242 242 243 242 243 244 245 245 248 250 251 254 255 257 257 254 251 247 246 245 245 247 250 254 257 259 261 265 269
267 266 265 263 261 258 257 255 254 252 252 251 251 250 250 249 249 249 248 248 247 245 244 243 242 240 238 235 231 229 229 232 231 229 230 230 227 226 226 226 226 225 224 223 222 223 224 226 227 229 231 232 233 234 235 232 229 231 237 240 241 241 241 242 243 243 245 245 246 247 250 254 254 251 249 245 241 241 242 243 245 248 252 255 260 264 266 269
267 265 264 262 260 257 255 253 252 250 249 249 248 247 247 246 246 245 245 245 243 242 241 240 240 238 236 234 230 228 229 231 230 228 228 229 227 225 225 226 226 226 225 223 223 223 225 226 226 228 230 230 231 233 232 229 227 231 236 240 241 241 241 241 242 243 245 243 242 242 242 245 247 247 246 243 241 242 243 242 244 248 253 258 263 265 266 268
267 265 263 260 258 256 253 251 249 248 247 246 245 244 243 243 242 241 241 241 240 238 238 238 237 235 235 233 229 228 229 229 228 227 226 226 226 224 224 224 225 225 225 224 223 222 223 224 225 227 228 229 230 231 230 226 225 229 236 240 239 238 239 241 242 244 247 243 236 232 234 239 244 246 246 245 243 244 245 245 247 252 256 260 263 264 266 269
267 264 261 258 256 254 251 249 247 245 244 242 241 240 239 239 238 238 238 237 236 235 235 235 235 234 233 232 229 228 228 227 227 226 225 224 223 223 224 224 225 225 224 223 222 221 222 223 224 226 227 227 228 229 227 223 224 228 234 237 235 235 236 239 243 246 247 239 227 227 232 237 242 245 246 246 243 242 244 246 250 255 259 262 264 265 268 268
266 262 259 256 253 251 248 245 243 241 239 238 237 236 235 234 234 234 234 233 232 232 232 232 232 232 231 230 228 227 226 226 226 225 224 223 221 221 222 223 225 225 224 223 221 220 221 222 223 224 225 226 226 227 225 221 222 226 230 231 229 230 233 237 241 240 235 228 224 228 231 233 238 242 245 245 243 244 248 251 256 260 262 263 264 265 265 263
263 259 256 252 249 246 243 240 237 235 234 232 232 231 230 230 230 230 229 228 228 229 229 230 230 230 229 228 227 225 224 226 226 225 224 222 220 219 219 222 223 224 223 222 221 221 221 222 223 223 224 225 225 226 223 219 220 222 224 223 222 225 231 235 233 229 227 225 224 227 228 228 234 238 243 247 249 252 255 257 260 260 262 262 262 262 260 260
260 255 250 247 243 239 236 233 231 229 228 227 227 226 225 225 225 225 225 225 225 225 226 227 228 228 227 226 227 224 224 226 225 224 223 220 218 217 217 219 221 222 222 221 221 222 223 223 223 223 223 223 224 224 221 217 216 217 216 214 218 224 227 227 223 221 224 223 221 225 227 230 236 239 245 250 254 256 256 255 255 255 257 258 259 259 257 258
254 249 244 240 236 232 230 227 225 223 223 223 223 222 221 221 221 221 221 221 221 223 224 225 226 226 224 225 225 223 223 224 224 223 222 219 217 215 215 215 218 220 220 220 220 221 223 223 223 221 221 220 221 221 217 213 211 211 210 210 214 219 219 217 216 216 217 216 215 223 229 235 241 243 246 251 254 255 256 254 251 250 251 253 255 257 255 256
247 241 237 232 229 227 225 222 221 219 219 220 220 219 218 218 218 217 218 218 219 220 222 223 224 223 222 223 223 222 221 221 221 221 220 218 215 213 213 213 215 217 218 218 219 220 221 222 222 220 218 218 218 217 214 208 206 207 204 202 208 214 214 211 209 210 210 207 200 211 227 237 243 246 248 251 254 254 254 251 248 247 248 251 252 254 254 255
238 234 230 225 223 224 222 219 217 216 217 218 218 217 216 216 216 215 215 216 216 218 219 220 221 221 220 221 222 221 219 218 219 218 217 216 213 210 210 211 212 214 216 217 217 217 218 219 220 217 214 213 214 213 209 202 200 201 196 197 205 209 208 205 206 208 209 206 199 206 221 232 241 247 249 249 248 246 244 243 246 248 252 257 257 255 253 255
232 230 227 220 220 223 221 218 216 214 214 215 216 215 214 214 214 213 213 213 214 215 217 218 220 219 218 219 220 219 218 218 218 216 214 214 212 208 208 209 210 212 214 214 213 214 214 214 214 212 209 207 206 205 202 194 194 197 196 199 205 205 203 205 208 212 214 210 203 207 215 224 234 240 243 242 239 236 235 235 238 244 254 267 269 263 258 264
229 231 225 218 219 220 217 216 214 212 212 213 214 212 212 212 211 211 211 211 211 213 215 216 217 217 217 218 218 217 217 217 217 214 211 210 209 207 206 207 208 210 211 211 210 210 209 209 208 207 204 201 199 198 196 193 195 199 201 203 207 205 202 203 207 214 217 212 204 209 214 219 226 231 236 237 236 237 236 231 232 243 259 274 276 269 269 280
229 231 223 217 221 215 212 214 210 209 210 210 211 210 209 209 208 208 209 208 209 211 214 215 217 217 217 218 217 214 212 213 215 212 208 208 207 205 205 206 207 208 209 208 207 206 206 206 205 202 201 199 197 196 194 195 199 203 204 206 207 204 200 201 207 213 215 213 210 210 208 214 223 225 232 235 233 235 238 237 239 250 263 271 270 265 269 277
229 229 221 219 224 213 208 213 207 204 208 209 209 209 207 206 206 207 207 208 209 210 211 213 215 216 216 216 214 212 208 207 211 210 207 206 204 203 203 204 205 206 206 206 206 206 206 205 202 200 200 200 198 195 194 198 202 204 205 205 203 201 201 205 210 214 214 215 217 211 199 204 218 223 229 234 232 231 239 246 251 254 259 262 260 259 267 276
225 224 221 220 225 214 207 214 208 202 206 209 209 207 205 204 204 206 207 208 210 210 209 208 210 212 211 211 210 208 203 202 206 207 206 206 203 200 200 201 201 202 204 204 205 206 206 203 200 200 203 204 200 195 196 200 203 205 205 201 197 199 204 208 212 215 215 217 221 218 203 197 208 223 231 232 230 232 239 246 251 255 260 263 264 264 270 278
225 223 218 216 221 215 209 213 211 205 206 208 209 207 205 204 204 207 208 209 210 209 206 201 203 207 206 204 205 203 198 198 203 205 205 206 203 198 197 197 197 199 200 202 204 205 203 198 198 201 204 205 200 194 197 202 203 204 202 197 197 202 207 210 214 217 218 219 222 226 219 206 208 220 231 233 234 243 249 249 252 261 268 270 271 271 272 275
228 222 216 213 215 215 213 212 210 208 207 206 206 205 204 204 204 207 208 209 209 205 202 199 200 205 203 198 198 198 196 197 200 203 204 205 203 198 196 195 195 197 198 200 203 202 196 195 199 202 202 204 199 194 198 201 202 202 198 195 199 204 209 213 216 218 220 222 225 231 230 227 225 219 221 238 246 251 256 258 262 269 275 277 277 278 276 276
227 222 217 214 216 218 214 205 204 207 205 202 204 204 204 203 203 206 207 206 205 202 198 196 197 203 202 194 193 194 193 195 196 198 201 202 201 198 196 195 195 196 197 200 200 196 194 196 199 201 202 203 197 194 198 200 203 202 195 195 201 206 211 215 217 220 222 223 228 235 233 237 242 224 206 231 246 250 255 260 264 269 274 278 280 280 276 273
225 221 215 213 214 210 200 194 198 201 200 200 204 204 202 200 200 203 203 201 201 198 193 190 191 201 201 190 189 192 190 193 194 193 195 199 198 196 195 195 196 198 198 199 197 194 196 198 199 202 203 204 201 198 200 202 206 204 196 197 204 207 212 217 219 222 225 226 230 236 235 238 247 237 215 222 235 242 248 253 259 265 271 276 276 274 270 269
215 211 206 203 199 193 188 191 195 196 197 201 203 201 198 197 197 198 197 196 199 196 189 186 189 198 198 187 187 189 188 192 194 192 193 195 196 195 194 193 195 199 201 199 193 195 201 200 200 203 203 205 204 200 201 203 205 204 198 200 206 209 213 219 223 224 227 228 229 234 237 240 246 246 237 229 233 241 245 249 254 261 267 271 270 265 261 260
199 196 193 190 186 183 184 189 191 192 195 195 194 194 193 194 194 193 192 192 196 194 188 187 190 194 193 185 183 184 188 193 193 193 196 196 194 193 194 194 195 197 199 196 192 197 201 199 201 203 202 201 203 202 204 204 202 200 199 202 206 210 214 220 224 227 227 226 227 233 238 241 244 247 247 245 246 251 255 258 258 258 260 263 265 262 258 257
187 186 185 183 181 180 182 186 187 187 187 186 187 189 191 191 190 189 190 189 190 189 187 187 188 192 190 182 180 182 185 190 191 191 195 197 196 193 192 194 196 197 194 190 193 198 200 199 202 203 201 198 200 203 205 204 202 200 200 202 206 209 213 219 225 228 227 224 227 233 237 241 244 248 252 254 257 260 263 265 263 259 256 258 264 265 262 262
182 182 181 180 179 179 181 182 180 178 180 182 184 186 187 188 188 186 185 183 182 183 184 183 185 191 188 178 179 185 184 186 191 192 192 195 196 195 194 195 196 197 191 188 194 198 199 201 202 203 201 199 201 205 206 205 203 202 203 203 205 208 211 218 224 227 226 224 228 235 239 242 246 251 256 257 260 265 267 267 266 261 257 258 264 266 266 267
179 180 180 178 177 179 179 176 174 176 178 180 182 183 184 186 186 182 178 178 178 178 180 181 183 187 182 173 179 188 188 188 192 195 194 194 195 196 197 197 198 198 192 188 193 197 199 202 202 201 201 200 202 206 207 207 207 208 210 207 206 209 211 216 222 225 225 225 229 235 238 242 247 253 257 256 258 261 263 268 269 263 258 257 260 263 265 268
176 179 178 176 177 179 176 173 173 175 176 177 179 182 182 181 180 178 176 177 174 173 174 171 171 178 178 175 178 186 191 192 194 196 198 198 197 196 198 199 202 201 193 189 193 197 198 201 201 199 200 201 203 205 207 208 209 212 216 213 211 211 212 215 221 224 225 226 229 233 237 242 248 253 256 257 257 254 256 266 268 263 259 259 260 262 266 269
172 177 176 176 177 177 174 172 174 174 175 176 178 181 178 173 174 175 176 177 171 168 168 160 159 168 172 175 181 186 190 192 193 195 200 202 198 197 199 200 202 201 192 189 195 199 198 199 201 201 202 204 206 207 208 211 213 214 217 216 215 215 214 215 219 223 224 226 229 233 236 242 247 250 253 256 256 254 257 262 262 261 262 263 264 266 268 270
170 176 177 177 176 175 173 173 175 175 176 177 179 178 171 167 172 173 173 176 170 168 169 162 158 163 167 175 182 185 186 188 191 195 201 205 204 202 202 202 203 200 193 191 197 201 201 201 202 204 207 208 209 211 212 213 214 215 217 218 217 218 218 217 219 221 224 227 230 233 236 241 245 248 250 251 254 258 259 255 251 256 260 262 265 267 267 270
171 177 178 176 174 173 173 174 176 176 176 178 176 171 166 167 171 171 173 176 168 166 171 169 163 163 168 176 177 173 175 181 187 192 197 199 203 207 206 205 205 201 196 197 199 202 203 203 204 208 212 213 212 214 217 218 217 217 218 218 219 221 220 219 221 222 223 226 229 231 233 237 240 243 247 250 253 254 254 250 249 253 258 263 268 270 271 273
173 177 176 175 174 173 175 175 176 176 177 175 168 165 167 170 170 170 175 176 163 159 163 169 169 167 170 175 171 166 171 176 179 183 187 190 194 202 206 205 204 200 197 199 201 202 203 204 207 211 213 214 215 215 215 217 218 218 217 217 218 220 220 218 220 222 223 224 225 227 228 231 236 241 246 251 252 247 244 247 250 254 260 266 270 273 274 277
174 176 174 174 174 174 175 174 174 176 176 171 166 168 172 172 170 170 175 175 161 152 153 162 168 168 167 168 167 168 172 173 174 176 180 186 190 196 201 200 198 195 193 196 200 202 200 201 207 210 208 208 213 212 208 211 215 215 212 211 213 216 218 218 219 220 220 221 222 224 226 229 234 240 244 250 252 248 247 250 254 260 265 268 269 272 274 277
173 174 173 173 174 174 173 172 172 174 172 169 170 174 175 175 172 171 175 173 158 149 148 156 164 165 165 165 168 172 173 171 172 172 173 181 188 193 196 195 188 185 188 192 196 197 196 197 203 207 204 202 206 208 206 210 213 209 206 207 207 211 216 219 220 221 221 222 224 226 229 231 234 240 244 249 252 253 255 258 261 265 270 273 273 273 275 276
173 174 174 174 174 174 172 171 172 171 168 170 175 178 179 178 174 174 178 173 160 152 151 157 164 167 167 169 172 172 170 167 167 168 172 179 185 189 192 191 185 182 185 189 191 192 193 195 200 203 200 200 206 209 208 212 215 210 206 206 205 207 212 215 217 219 221 224 228 231 234 235 237 241 246 250 254 257 259 262 264 266 270 273 274 274 276 277
174 175 175 175 174 174 174 173 171 168 169 174 178 179 181 179 175 177 178 172 165 159 156 160 168 170 170 174 176 171 167 166 166 169 176 180 182 186 189 189 186 184 185 186 188 189 189 193 198 201 198 199 207 213 214 217 220 216 210 208 208 208 211 213 215 218 219 221 226 231 234 236 239 242 247 251 254 255 257 260 262 265 269 270 271 274 276 281
176 177 178 177 176 175 175 173 172 171 172 177 180 181 182 179 176 178 176 171 167 163 161 165 172 175 175 178 178 172 170 172 171 172 177 178 180 183 187 189 188 187 187 187 188 188 186 189 195 200 201 202 206 212 215 216 219 217 210 208 212 214 215 217 219 222 224 225 227 229 230 233 237 241 247 252 256 255 254 256 259 264 269 270 270 272 274 280
179 179 179 180 179 177 175 173 173 174 176 180 182 183 182 179 178 180 176 171 169 168 167 169 174 179 181 181 180 176 175 179 177 174 176 178 180 182 186 190 190 189 190 189 189 188 185 186 190 196 203 207 210 211 211 212 216 217 213 209 210 215 219 223 224 225 228 229 230 231 232 235 239 243 248 253 255 253 250 254 260 266 269 269 269 269 270 275
182 182 181 180 179 177 175 175 176 177 180 182 183 184 184 181 181 183 178 173 171 172 171 173 176 181 183 184 182 178 179 182 181 178 180 182 182 181 185 192 194 193 193 193 192 191 189 188 188 193 202 208 210 209 208 210 216 219 218 213 210 212 217 223 224 223 224 225 229 232 234 238 242 245 248 250 252 252 253 257 262 267 268 266 268 270 269 271
177 182 184 181 179 178 177 178 181 183 185 184 183 184 186 185 183 184 181 175 173 174 176 178 179 180 183 185 182 179 182 187 187 183 182 184 186 183 184 192 198 199 198 196 195 195 194 192 191 195 203 208 210 209 207 209 215 220 221 218 214 212 215 219 221 222 223 227 232 235 239 243 246 249 251 251 252 254 255 255 255 258 262 263 269 276 274 271
164 178 185 183 180 180 179 180 183 187 187 185 183 185 187 187 185 184 183 180 178 178 181 184 184 184 185 188 186 183 184 190 193 191 189 189 189 188 187 192 198 201 201 199 197 198 199 196 194 197 205 209 211 211 211 212 216 220 223 222 220 217 216 217 220 223 227 231 236 240 243 247 250 253 255 255 254 254 255 255 253 251 252 257 267 274 276 274
159 172 179 178 177 177 177 178 182 186 187 185 185 188 188 187 186 184 185 186 184 183 185 189 191 191 190 191 193 191 189 193 197 199 199 198 196 195 195 197 200 203 204 202 200 200 201 199 198 200 205 210 212 212 213 213 215 219 224 225 225 223 220 220 222 226 230 233 237 242 246 248 250 253 255 256 257 257 258 259 259 255 252 254 260 263 264 267
158 167 171 171 172 172 174 178 181 185 186 185 188 189 186 186 187 185 185 190 192 191 191 191 192 193 193 194 197 198 198 199 201 203 206 206 205 204 205 207 209 209 210 209 207 205 204 203 202 203 206 211 214 216 216 214 214 217 222 225 226 226 226 226 227 230 233 237 239 244 247 250 253 254 257 259 260 259 261 264 264 260 255 254 257 256 255 257
159 166 168 168 170 173 176 179 182 184 185 186 189 187 182 184 187 187 187 191 195 196 195 192 192 195 197 198 201 204 207 208 208 209 209 210 213 215 215 216 217 217 218 218 216 213 211 209 208 208 209 212 215 218 220 219 218 219 222 224 225 226 228 229 231 232 235 238 240 243 247 250 253 255 257 259 258 260 266 269 269 264 256 253 252 250 250 254
160 167 170 168 170 175 177 177 179 181 183 185 187 184 180 182 185 187 188 191 195 198 201 201 200 202 205 206 207 209 212 214 214 214 214 214 217 220 222 223 222 223 224 224 224 222 219 218 216 214 214 215 218 220 222 222 223 224 225 226 226 227 228 230 232 232 234 236 239 242 246 250 253 255 257 258 257 260 263 265 271 271 260 250 246 246 250 254
163 168 169 170 172 175 175 173 174 178 181 183 183 182 182 182 183 187 190 193 197 202 207 209 209 210 212 213 214 214 215 216 217 218 219 220 221 221 224 227 227 227 228 228 230 229 227 226 225 223 221 221 222 223 224 224 225 227 229 231 232 232 232 234 234 234 235 237 240 244 247 250 253 256 259 260 260 260 259 262 270 271 263 253 246 247 250 252
164 168 169 170 173 174 172 170 171 176 181 182 182 184 186 184 186 190 193 196 201 205 208 210 211 214 215 216 217 219 218 219 219 220 222 224 225 225 225 226 228 230 231 231 233 233 232 229 229 229 228 228 228 227 227 228 228 229 231 233 236 238 237 236 236 235 237 239 242 245 249 251 253 257 260 262 262 261 259 262 267 266 264 259 251 247 249 250
Height
5710 5711 5711 5712 5713 5714 5715 5716 5717 5718 5719 5720 5722 5723 5725 5726 5728 5730 5732 5733 5735 5737 5738 5740 5742 5744 5746 5749 5751 5753 5756 5758 5760 5763 5765 5764 5766 5769 5771 5774 5776 5778 5781 5783 5785 5787 5789 5791 5793 5795 5797 5799 5800 5801 5803 5805 5808 5810 5812 5813 5813 5813 5813 5815 5816 5818 5819 5821 5821 5822 5823 5823 5824 5827 5828 5830 5831 5831 5832 5832 5832 5833 5834 5835 5836 5837 5837 5836
5703 5703 5704 5705 5706 5707 5708 5709 5710 5711 5712 5714 5715 5717 5719 5720 5722 5724 5726 5728 5730 5732 5734 5735 5737 5739 5741 5744 5746 5748 5752 5754 5757 5761 5760 5759 5763 5766 5768 5770 5772 5775 5778 5780 5781 5783 5785 5787 5789 5792 5794 5796 5797 5799 5801 5803 5806 5808 5809 5810 5810 5810 5811 5813 5814 5815 5816 5818 5818 5819 5821 5822 5823 5824 5826 5827 5828 5829 5829 5830 5831 5831 5832 5833 5834 5834 5834 5834
5695 5696 5697 5697 5698 5699 5700 5701 5703 5704 5706 5707 5709 5711 5712 5714 5716 5718 5721 5723 5725 5727 5729 5731 5732 5734 5736 5739 5741 5744 5747 5749 5754 5757 5755 5757 5761 5763 5764 5766 5769 5772 5774 5776 5778 5780 5782 5784 5787 5789 5791 5793 5794 5796 5798 5801 5804 5805 5806 5807 5807 5807 5809 5810 5812 5813 5813 5815 5816 5817 5819 5820 5821 5822 5824 5825 5826 5826 5827 5828 5829 5829 5829 5830 5831 5831 5831 5831
5688 5689 5689 5690 5691 5692 5693 5694 5696 5697 5699 5700 5702 5704 5706 5708 5710 5713 5715 5718 5720 5722 5724 5726 5727 5729 5731 5734 5736 5739 5742 5746 5751 5752 5751 5755 5757 5759 5761 5763 5766 5768 5770 5773 5775 5777 5779 5782 5785 5786 5788 5790 5792 5794 5796 5799 5801 5802 5803 5803 5803 5804 5806 5808 5809 5810 5811 5813 5814 5815 5817 5818 5819 5819 5821 5822 5823 5824 5825 5826 5826 5826 5827 5827 5828 5828 5828 5828
5681 5681 5682 5682 5683 5685 5686 5687 5688 5690 5692 5693 5695 5697 5699 5701 5704 5707 5709 5712 5714 5716 5718 5720 5722 5724 5726 5729 5731 5735 5738 5742 5747 5747 5748 5751 5754 5756 5758 5760 5762 5764 5767 5770 5772 5774 5777 5779 5781 5783 5785 5787 5789 5792 5794 5796 5798 5799 5799 5799 5800 5802 5804 5806 5807 5808 5809 5811 5813 5814 5815 5816 5817 5817 5819 5820 5821 5822 5823 5824 5824 5824 5824 5825 5825 5826 5826 5825
5673 5674 5674 5675 5676 5677 5678 5680 5681 5682 5684 5686 5688 5690 5692 5695 5697 5700 5704 5706 5708 5711 5713 5715 5717 5719 5721 5723 5727 5730 5733 5738 5741 5743 5745 5747 5750 5753 5754 5757 5759 5761 5764 5766 5769 5772 5774 5776 5778 5780 5782 5784 5787 5789 5791 5793 5794 5795 5795 5796 5798 5801 5802 5803 5804 5806 5807 5809 5810 5812 5813 5814 5815 5815 5816 5818 5819 5820 5821 5821 5821 5821 5822 5822 5823 5822 5822 5822
5665 5666 5666 5667 5668 5669 5670 5672 5673 5675 5676 5678 5681 5683 5685 5688 5691 5694 5697 5700 5703 5705 5707 5709 5711 5714 5716 5719 5722 5725 5729 5734 5736 5739 5741 5743 5746 5749 5751 5754 5756 5758 5761 5763 5766 5768 5771 5773 5775 5777 5779 5781 5784 5786 5787 5789 5791 5791 5792 5794 5797 5798 5799 5801 5802 5804 5805 5807 5808 5810 5811 5811 5812 5813 5814 5815 5816 5817 5818 5819 5819 5819 5819 5819 5820 5820 5820 5819
5657 5657 5658 5659 5660 5661 5662 5664 5665 5667 5668 5671 5673 5676 5678 5681 5684 5688 5691 5694 5696 5699 5702 5704 5706 5709 5711 5714 5717 5721 5726 5729 5730 5734 5737 5739 5742 5745 5748 5750 5753 5755 5757 5759 5762 5764 5767 5769 5771 5774 5776 5779 5781 5782 5784 5786 5787 5789 5790 5792 5794 5795 5797 5798 5800 5802 5803 5805 5806 5808 5808 5809 5810 5811 5812 5813 5814 5815 5815 5816 5817 5817 5816 5816 5817 5817 5817 5816
5648 5649 5649 5650 5651 5652 5654 5655 5657 5658 5661 5663 5665 5668 5671 5674 5678 5681 5684 5687 5690 5693 5696 5698 5701 5703 5706 5709 5712 5717 5722 5723 5726 5731 5733 5735 5739 5741 5744 5747 5749 5751 5753 5756 5758 5761 5764 5766 5768 5771 5773 5775 5777 5778 5780 5783 5785 5787 5788 5789 5790 5792 5794 5796 5798 5800 5801 5803 5804 5805 5806 5807 5807 5808 5810 5811 5811 5812 5813 5814 5814 5814 5814 5814 5815 5815 5815 5814
5640 5640 5640 5641 5642 5644 5645 5647 5649 5650 5653 5655 5658 5661 5664 5667 5671 5674 5678 5681 5684 5687 5690 5693 5695 5698 5701 5704 5708 5714 5717 5718 5722 5727 5729 5731 5735 5738 5740 5743 5746 5748 5750 5753 5755 5758 5761 5762 5765 5767 5770 5772 5773 5774 5777 5780 5783 5784 5784 5786 5789 5791 5792 5794 5796 5798 5799 5800 5802 5804 5804 5804 5804 5805 5807 5807 5809 5810 5811 5812 5812 5812 5812 5812 5812 5812 5812 5811
5631 5631 5632 5633 5634 5635 5637 5639 5641 5643 5645 5648 5651 5654 5657 5660 5664 5667 5671 5674 5678 5681 5684 5687 5690 5693 5696 5700 5705 5709 5711 5714 5718 5721 5724 5728 5731 5733 5736 5739 5742 5744 5747 5749 5752 5754 5756 5758 5761 5764 5766 5768 5769 5772 5775 5778 5780 5781 5782 5785 5787 5789 5791 5793 5795 5796 5797 5799 5800 5801 5801 5800 5801 5803 5804 5805 5807 5808 5809 5809 5809 5810 5810 5810 5810 5809 5810 5809
5622 5623 5623 5624 5626 5627 5629 5631 5633 5636 5638 5641 5644 5647 5650 5654 5657 5661 5665 5668 5672 5675 5678 5681 5685 5688 5691 5696 5702 5704 5706 5709 5713 5717 5720 5724 5727 5729 5733 5736 5739 5741 5744 5746 5748 5750 5752 5755 5758 5760 5762 5764 5767 5770 5773 5775 5777 5778 5780 5783 5785 5787 5790 5792 5793 5794 5796 5797 5798 5797 5798 5799 5799 5800 5801 5803 5805 5805 5806 5807 5807 5807 5807 5807 5807 5807 5808 5807
5614 5614 5615 5617 5618 5620 5622 5624 5627 5629 5632 5635 5638 5641 5645 5648 5651 5655 5659 5663 5667 5670 5673 5676 5680 5684 5687 5693 5697 5698 5701 5705 5709 5714 5717 5720 5723 5726 5729 5732 5735 5738 5740 5742 5744 5746 5748 5751 5754 5757 5759 5762 5765 5767 5770 5772 5774 5776 5778 5781 5784 5786 5788 5790 5791 5792 5793 5794 5794 5794 5796 5797 5798 5798 5800 5801 5802 5803 5804 5804 5804 5805 5805 5805 5805 5805 5805 5804
5606 5606 5608 5609 5611 5613 5615 5618 5621 5623 5626 5630 5633 5636 5639 5642 5646 5650 5654 5658 5661 5664 5668 5672 5676 5679 5683 5689 5690 5692 5698 5702 5707 5710 5712 5716 5719 5722 5725 5728 5731 5734 5736 5738 5740 5742 5744 5747 5751 5754 5757 5760 5762 5765 5767 5769 5771 5773 5776 5780 5783 5785 5786 5787 5788 5790 5790 5790 5791 5792 5794 5796 5796 5797 5798 5799 5800 5801 5801 5801 5802 5802 5803 5803 5802 5803 5802 5801
5598 5600 5601 5603 5605 5607 5610 5613 5615 5618 5622 5625 5628 5631 5634 5637 5641 5645 5649 5653 5656 5660 5663 5667 5671 5675 5680 5684 5685 5689 5695 5699 5703 5705 5708 5712 5715 5718 5721 5724 5727 5730 5732 5735 5737 5739 5742 5745 5749 5752 5755 5758 5760 5762 5764 5766 5768 5771 5775 5778 5781 5782 5784 5785 5786 5787 5787 5787 5789 5791 5793 5794 5794 5795 5796 5797 5798 5798 5798 5798 5799 5800 5800 5800 5800 5800 5800 5798
5592 5593 5595 5597 5600 5603 5605 5608 5611 5614 5617 5621 5624 5627 5629 5633 5636 5640 5644 5648 5652 5655 5659 5663 5667 5671 5676 5679 5680 5686 5692 5694 5696 5699 5703 5707 5710 5712 5715 5719 5723 5726 5728 5731 5733 5736 5739 5743 5746 5749 5752 5755 5757 5759 5761 5763 5766 5769 5774 5777 5778 5779 5779 5781 5783 5783 5784 5785 5787 5789 5791 5791 5792 5793 5794 5794 5795 5795 5796 5796 5797 5798 5798 5798 5797 5797 5797 5796
5586 5588 5590 5593 5596 5599 5601 5604 5607 5610 5614 5617 5620 5622 5625 5629 5632 5635 5640 5644 5648 5651 5655 5659 5663 5668 5672 5674 5677 5683 5687 5688 5691 5695 5699 5702 5704 5708 5711 5715 5719 5722 5724 5727 5730 5734 5737 5740 5744 5746 5749 5751 5753 5755 5758 5761 5765 5769 5772 5774 5774 5774 5775 5778 5779 5779 5781 5783 5785 5787 5788 5789 5789 5791 5792 5792 5793 5793 5794 5795 5795 5796 5796 5796 5795 5795 5794 5793
5582 5584 5586 5589 5593 5595 5598 5601 5604 5607 5610 5613 5616 5619 5622 5625 5628 5632 5636 5640 5643 5647 5651 5656 5660 5664 5668 5671 5674 5678 5681 5683 5686 5690 5694 5697 5700 5704 5708 5711 5714 5717 5720 5724 5728 5731 5734 5738 5741 5744 5746 5748 5750 5753 5757 5761 5765 5768 5770 5770 5769 5770 5772 5775 5775 5776 5778 5781 5782 5784 5786 5786 5787 5788 5789 5790 5790 5791 5792 5793 5794 5794 5794 5794 5793 5793 5792 5791
5579 5581 5584 5587 5590 5592 5595 5598 5601 5603 5606 5609 5612 5616 5619 5621 5625 5629 5633 5636 5641 5645 5649 5653 5657 5661 5664 5666 5669 5672 5676 5679 5682 5686 5690 5694 5697 5700 5703 5707 5710 5714 5718 5722 5725 5728 5731 5735 5738 5741 5743 5745 5748 5752 5756 5759 5762 5763 5765 5766 5766 5768 5771 5772 5773 5774 5776 5778 5780 5781 5783 5784 5785 5786 5786 5787 5787 5788 5789 5790 5791 5791 5791 5792 5791 5791 5790 5789
5577 5579 5581 5584 5587 5590 5592 5595 5597 5600 5603 5606 5610 5613 5616 5619 5622 5626 5630 5634 5639 5642 5645 5649 5653 5656 5659 5661 5665 5669 5673 5677 5679 5683 5687 5690 5694 5697 5699 5703 5707 5711 5715 5719 5722 5725 5729 5732 5735 5739 5741 5744 5746 5750 5753 5755 5757 5759 5761 5763 5764 5768 5770 5771 5772 5772 5774 5777 5779 5780 5781 5782 5783 5783 5784 5784 5785 5786 5787 5788 5789 5789 5789 5789 5789 5789 5787 5787
5575 5577 5579 5582 5584 5587 5589 5592 5594 5598 5601 5604 5607 5610 5613 5616 5620 5624 5628 5632 5636 5639 5643 5646 5649 5653 5656 5658 5663 5666 5670 5674 5676 5680 5684 5687 5690 5693 5696 5700 5704 5708 5712 5715 5718 5722 5725 5729 5733 5736 5739 5741 5743 5746 5749 5751 5753 5755 5758 5760 5763 5767 5769 5769 5769 5770 5773 5776 5777 5779 5780 5780 5781 5781 5781 5782 5783 5784 5784 5785 5786 5786 5787 5787 5787 5786 5785 5785
5573 5575 5578 5580 5582 5584 5587 5589 5592 5595 5598 5601 5604 5607 5610 5614 5619 5622 5626 5630 5633 5637 5640 5644 5647 5651 5653 5656 5660 5664 5668 5671 5673 5677 5681 5684 5687 5690 5694 5698 5702 5706 5709 5712 5716 5719 5722 5726 5730 5733 5736 5738 5740 5743 5745 5748 5750 5752 5755 5759 5762 5765 5766 5766 5768 5770 5772 5774 5775 5777 5778 5778 5778 5778 5778 5780 5782 5782 5782 5783 5783 5784 5784 5784 5784 5784 5783 5783
5572 5573 5576 5578 5580 5582 5585 5587 5590 5593 5596 5599 5602 5606 5610 5614 5618 5621 5625 5628 5631 5634 5638 5641 5644 5647 5650 5654 5658 5662 5666 5669 5671 5674 5679 5682 5684 5687 5691 5696 5700 5704 5707 5710 5714 5716 5720 5725 5729 5731 5733 5735 5737 5740 5743 5745 5747 5750 5754 5758 5760 5762 5763 5765 5766 5768 5769 5771 5773 5774 5775 5776 5775 5775 5777 5779 5780 5780 5780 5781 5781 5781 5782 5782 5782 5782 5782 5781
5570 5572 5574 5576 5578 5580 5583 5586 5588 5590 5593 5597 5601 5605 5609 5613 5617 5620 5623 5626 5629 5632 5636 5638 5640 5643 5646 5650 5654 5659 5663 5666 5669 5673 5677 5681 5683 5685 5689 5693 5697 5701 5704 5708 5711 5715 5720 5724 5726 5727 5729 5732 5734 5738 5741 5743 5746 5749 5753 5756 5757 5759 5761 5763 5764 5765 5766 5768 5769 5770 5772 5773 5773 5775 5777 5778 5778 5778 5778 5778 5779 5779 5779 5779 5780 5780 5780 5780
5568 5570 5572 5574 5576 5578 5581 5584 5586 5588 5592 5596 5600 5604 5608 5612 5616 5619 5622 5625 5627 5630 5633 5636 5638 5641 5643 5648 5652 5656 5659 5663 5667 5670 5675 5680 5683 5685 5687 5691 5695 5698 5702 5705 5708 5713 5717 5720 5721 5723 5726 5729 5733 5736 5738 5741 5745 5748 5752 5754 5755 5757 5759 5760 5761 5763 5764 5765 5766 5767 5768 5769 5771 5775 5777 5776 5776 5776 5775 5776 5776 5776 5776 5777 5777 5778 5778 5778
5566 5568 5570 5572 5574 5576 5578 5581 5584 5587 5591 5595 5599 5603 5607 5611 5615 5617 5619 5622 5625 5628 5632 5635 5638 5639 5641 5647 5652 5654 5658 5662 5664 5668 5673 5678 5680 5683 5686 5689 5692 5696 5699 5702 5706 5711 5714 5716 5718 5721 5724 5727 5730 5733 5736 5739 5742 5746 5750 5752 5753 5755 5756 5757 5758 5760 5761 5762 5763 5765 5766 5766 5769 5773 5775 5774 5773 5773 5773 5773 5774 5774 5775 5775 5775 5776 5776 5776
5564 5566 5567 5569 5571 5574 5576 5579 5581 5585 5590 5593 5597 5601 5605 5609 5612 5614 5617 5620 5624 5627 5630 5634 5637 5637 5641 5648 5651 5653 5658 5660 5662 5666 5671 5675 5678 5680 5683 5687 5691 5694 5696 5699 5705 5709 5710 5713 5716 5718 5722 5725 5728 5732 5734 5737 5740 5745 5750 5751 5751 5752 5753 5755 5756 5757 5758 5760 5761 5762 5763 5764 5766 5769 5773 5772 5771 5771 5771 5772 5772 5773 5773 5773 5774 5774 5774 5774
5562 5563 5565 5567 5569 5571 5574 5577 5580 5584 5588 5592 5596 5599 5602 5606 5609 5612 5615 5619 5622 5625 5628 5632 5635 5636 5641 5646 5650 5654 5658 5660 5663 5666 5668 5671 5675 5678 5681 5684 5688 5692 5695 5699 5704 5707 5708 5712 5714 5717 5720 5723 5727 5731 5732 5735 5738 5743 5748 5749 5749 5750 5751 5752 5753 5755 5756 5758 5759 5760 5761 5763 5763 5765 5768 5769 5769 5769 5770 5771 5771 5772 5772 5772 5772 5772 5772 5773
5560 5562 5563 5565 5567 5570 5572 5576 5579 5584 5588 5591 5594 5597 5600 5604 5607 5611 5614 5618 5621 5624 5628 5631 5633 5636 5640 5644 5648 5652 5656 5658 5661 5665 5667 5669 5672 5676 5680 5683 5686 5689 5693 5699 5703 5704 5706 5709 5712 5714 5718 5722 5726 5729 5730 5732 5736 5740 5744 5745 5746 5747 5748 5750 5751 5752 5754 5756 5757 5758 5759 5761 5761 5762 5763 5765 5767 5767 5768 5769 5770 5770 5770 5770 5770 5770 5771 5771
5559 5560 5562 5564 5566 5569 5572 5575 5579 5584 5587 5590 5592 5595 5599 5603 5606 5610 5613 5617 5620 5623 5626 5629 5633 5636 5639 5643 5647 5650 5652 5656 5659 5661 5664 5668 5672 5675 5678 5681 5683 5686 5690 5696 5699 5700 5703 5706 5708 5711 5715 5719 5722 5724 5727 5730 5733 5736 5739 5741 5744 5745 5746 5748 5749 5750 5751 5753 5754 5756 5757 5758 5758 5758 5760 5762 5764 5765 5766 5766 5767 5768 5768 5768 5768 5768 5769 5770
5558 5560 5561 5563 5566 5569 5572 5576 5580 5583 5585 5588 5591 5594 5598 5602 5605 5609 5613 5616 5619 5622 5625 5628 5632 5635 5638 5643 5646 5648 5650 5653 5656 5658 5662 5666 5670 5673 5676 5678 5681 5684 5688 5692 5695 5698 5701 5703 5706 5710 5714 5717 5719 5721 5724 5727 5730 5732 5735 5738 5741 5742 5744 5745 5746 5747 5749 5751 5752 5754 5755 5755 5755 5755 5757 5760 5761 5763 5763 5763 5764 5765 5765 5765 5766 5766 5766 5767
5557 5559 5561 5563 5566 5569 5573 5576 5579 5582 5584 5588 5591 5594 5597 5601 5605 5609 5612 5615 5618 5621 5623 5627 5631 5634 5638 5642 5645 5647 5650 5652 5654 5657 5660 5664 5668 5671 5675 5677 5679 5683 5687 5690 5693 5696 5699 5702 5706 5709 5712 5715 5717 5719 5722 5725 5728 5731 5733 5736 5738 5739 5741 5742 5743 5745 5747 5749 5751 5752 5753 5752 5752 5753 5755 5757 5759 5760 5761 5761 5762 5762 5762 5763 5763 5764 5764 5764
5557 5559 5561 5564 5566 5570 5573 5576 5578 5581 5585 5588 5591 5594 5597 5601 5606 5609 5612 5614 5617 5620 5622 5625 5629 5633 5636 5639 5641 5645 5649 5651 5653 5656 5660 5663 5667 5670 5674 5676 5679 5683 5688 5690 5692 5695 5698 5702 5705 5708 5710 5713 5714 5717 5720 5723 5726 5729 5731 5734 5735 5736 5738 5739 5740 5743 5745 5747 5748 5750 5751 5750 5749 5751 5752 5753 5756 5758 5759 5759 5759 5760 5760 5761 5761 5761 5762 5762
5557 5559 5561 5564 5566 5570 5573 5576 5578 5581 5585 5588 5591 5594 5598 5602 5606 5608 5611 5613 5617 5620 5622 5624 5627 5631 5635 5638 5640 5642 5646 5650 5653 5656 5658 5661 5665 5668 5671 5674 5677 5682 5687 5690 5692 5694 5697 5700 5703 5707 5709 5711 5714 5716 5720 5723 5726 5727 5729 5730 5732 5733 5735 5736 5738 5741 5743 5745 5746 5748 5749 5747 5747 5748 5749 5751 5754 5757 5757 5757 5758 5758 5759 5759 5759 5760 5760 5761
5557 5559 5561 5563 5567 5570 5573 5576 5578 5581 5585 5588 5591 5595 5600 5603 5605 5608 5611 5614 5617 5619 5620 5623 5625 5629 5633 5636 5639 5642 5646 5650 5653 5655 5658 5661 5665 5668 5670 5673 5676 5680 5685 5688 5690 5692 5696 5699 5702 5705 5707 5710 5713 5716 5718 5721 5723 5724 5725 5727 5729 5730 5732 5735 5737 5739 5741 5742 5744 5746 5746 5745 5745 5746 5747 5749 5753 5754 5755 5755 5756 5756 5757 5757 5758 5758 5758 5759
5557 5559 5561 5564 5567 5570 5573 5576 5578 5582 5585 5588 5592 5597 5601 5603 5605 5608 5611 5614 5617 5618 5620 5622 5625 5628 5631 5634 5637 5641 5645 5649 5652 5655 5658 5661 5665 5667 5670 5672 5676 5680 5684 5686 5688 5691 5695 5698 5701 5703 5706 5709 5712 5714 5716 5718 5719 5721 5723 5724 5726 5728 5730 5732 5734 5736 5738 5740 5741 5742 5743 5742 5743 5744 5744 5747 5750 5752 5752 5753 5753 5754 5755 5755 5756 5756 5756 5756
5557 5559 5562 5565 5568 5570 5573 5576 5579 5582 5585 5589 5594 5598 5600 5603 5605 5608 5611 5613 5616 5617 5619 5622 5624 5627 5630 5634 5637 5640 5643 5646 5650 5654 5657 5660 5663 5665 5668 5671 5675 5679 5683 5686 5688 5690 5694 5697 5699 5702 5705 5708 5710 5712 5714 5716 5717 5718 5721 5723 5724 5725 5726 5729 5731 5733 5735 5737 5738 5739 5739 5740 5741 5742 5742 5744 5746 5749 5750 5750 5751 5752 5753 5753 5754 5754 5754 5754
5557 5560 5562 5565 5568 5570 5573 5576 5579 5582 5586 5590 5594 5597 5600 5602 5604 5608 5611 5613 5615 5617 5619 5622 5625 5627 5630 5634 5637 5640 5642 5646 5649 5652 5655 5658 5661 5663 5666 5669 5673 5678 5681 5684 5686 5689 5693 5696 5698 5700 5703 5706 5708 5710 5711 5712 5713 5716 5718 5720 5721 5722 5724 5726 5728 5729 5732 5733 5734 5735 5737 5738 5739 5739 5740 5741 5743 5746 5747 5748 5749 5750 5751 5751 5752 5752 5752 5752
5558 5561 5563 5565 5568 5570 5573 5576 5579 5583 5587 5591 5594 5596 5599 5602 5604 5607 5610 5612 5614 5616 5619 5622 5625 5627 5629 5633 5636 5639 5642 5646 5649 5652 5654 5657 5660 5662 5665 5667 5671 5675 5678 5681 5683 5687 5691 5694 5696 5699 5701 5704 5705 5707 5708 5709 5711 5714 5716 5717 5718 5720 5722 5724 5726 5727 5729 5730 5732 5733 5734 5736 5737 5737 5738 5739 5741 5743 5745 5746 5747 5748 5748 5749 5749 5749 5750 5750
5558 5561 5563 5566 5568 5571 5574 5577 5580 5584 5588 5591 5593 5596 5599 5601 5604 5607 5610 5612 5614 5617 5619 5623 5625 5626 5629 5632 5634 5638 5642 5646 5649 5652 5654 5656 5659 5661 5664 5667 5669 5672 5674 5677 5680 5684 5688 5691 5694 5697 5699 5701 5703 5705 5707 5708 5710 5712 5714 5715 5715 5717 5720 5722 5723 5725 5727 5728 5729 5730 5732 5734 5735 5736 5736 5737 5739 5741 5743 5744 5745 5745 5746 5746 5746 5747 5747 5747
5558 5561 5564 5566 5569 5572 5574 5577 5581 5584 5587 5590 5593 5595 5598 5601 5605 5608 5611 5613 5615 5617 5620 5623 5625 5627 5629 5632 5635 5639 5642 5645 5648 5650 5652 5655 5658 5660 5663 5666 5668 5670 5672 5675 5678 5681 5685 5689 5692 5694 5697 5699 5701 5703 5705 5707 5708 5710 5712 5714 5714 5716 5718 5720 5721 5723 5724 5725 5726 5728 5730 5732 5733 5734 5734 5736 5738 5739 5741 5741 5742 5743 5743 5743 5744 5744 5744 5744
5558 5561 5564 5567 5570 5572 5575 5578 5581 5584 5587 5590 5592 5595 5599 5602 5605 5608 5611 5613 5615 5617 5620 5623 5625 5628 5630 5633 5636 5639 5642 5644 5646 5648 5651 5654 5657 5659 5662 5665 5667 5669 5671 5674 5676 5679 5683 5686 5690 5692 5694 5696 5698 5701 5703 5705 5706 5707 5709 5711 5713 5714 5716 5718 5720 5721 5723 5723 5724 5725 5727 5729 5730 5731 5732 5734 5736 5737 5738 5739 5740 5740 5741 5741 5741 5742 5742 5742
5558 5561 5564 5567 5569 5573 5576 5579 5581 5584 5586 5589 5592 5595 5599 5602 5605 5608 5611 5612 5615 5617 5620 5622 5625 5628 5630 5633 5636 5639 5641 5643 5645 5647 5650 5653 5656 5659 5661 5663 5666 5668 5670 5672 5675 5678 5681 5684 5687 5689 5692 5694 5696 5699 5701 5702 5703 5705 5706 5708 5711 5713 5714 5716 5718 5720 5721 5722 5723 5724 5725 5726 5728 5729 5731 5732 5734 5735 5736 5737 5738 5738 5739 5739 5739 5739 5739 5739
5558 5561 5563 5566 5569 5573 5576 5579 5581 5584 5586 5588 5591 5595 5598 5601 5605 5608 5610 5612 5614 5617 5620 5622 5625 5627 5630 5633 5636 5639 5641 5643 5644 5646 5649 5653 5655 5658 5661 5663 5665 5667 5669 5671 5674 5677 5679 5682 5684 5687 5688 5691 5693 5695 5698 5699 5701 5702 5704 5706 5708 5710 5712 5714 5716 5717 5718 5719 5721 5722 5723 5725 5726 5728 5729 5731 5732 5734 5735 5735 5736 5736 5737 5737 5737 5737 5737 5737
5558 5560 5563 5566 5569 5572 5575 5578 5581 5583 5584 5587 5591 5594 5597 5600 5604 5607 5610 5612 5614 5617 5620 5622 5624 5627 5630 5632 5635 5639 5641 5643 5644 5645 5648 5651 5654 5657 5660 5662 5664 5666 5668 5671 5673 5676 5678 5681 5683 5685 5686 5687 5690 5693 5695 5697 5699 5700 5702 5704 5706 5708 5710 5712 5714 5715 5716 5717 5719 5720 5721 5723 5725 5727 5728 5729 5731 5732 5733 5733 5734 5734 5735 5735 5735 5735 5735 5735
5558 5560 5563 5565 5568 5571 5574 5577 5579 5582 5584 5588 5591 5594 5596 5600 5603 5607 5610 5612 5614 5617 5620 5622 5625 5628 5630 5633 5635 5638 5640 5642 5644 5647 5649 5651 5653 5656 5659 5661 5663 5665 5667 5670 5672 5675 5677 5680 5682 5684 5685 5687 5690 5693 5695 5696 5697 5699 5701 5703 5705 5706 5708 5710 5712 5713 5715 5716 5717 5718 5720 5721 5723 5725 5726 5727 5729 5730 5730 5731 5732 5732 5733 5733 5733 5733 5733 5733
5558 5560 5563 5565 5568 5570 5573 5576 5578 5581 5584 5588 5591 5594 5597 5600 5603 5607 5610 5612 5615 5618 5620 5623 5626 5628 5631 5633 5635 5638 5640 5642 5644 5647 5649 5651 5653 5656 5659 5661 5662 5664 5666 5668 5671 5673 5676 5679 5681 5683 5685 5686 5688 5691 5693 5695 5696 5698 5699 5701 5703 5705 5706 5708 5710 5711 5713 5714 5715 5716 5718 5720 5722 5723 5724 5725 5726 5727 5728 5729 5729 5730 5731 5731 5731 5731 5731 5731
5558 5560 5563 5565 5568 5570 5572 5575 5578 5581 5584 5588 5591 5594 5597 5600 5603 5607 5610 5613 5616 5618 5621 5624 5626 5628 5630 5633 5635 5637 5640 5642 5643 5645 5648 5650 5653 5655 5658 5660 5662 5663 5665 5667 5670 5673 5675 5677 5680 5682 5683 5685 5686 5688 5690 5692 5694 5696 5698 5699 5701 5703 5704 5706 5708 5709 5710 5712 5713 5715 5716 5718 5719 5720 5721 5722 5724 5725 5726 5726 5726 5727 5728 5729 5729 5729 5729 5729
5559 5562 5564 5566 5568 5570 5572 5575 5578 5581 5585 5588 5591 5595 5598 5601 5603 5607 5610 5613 5616 5619 5622 5624 5626 5627 5629 5632 5635 5637 5639 5641 5643 5644 5647 5649 5651 5654 5656 5658 5661 5662 5664 5667 5669 5671 5674 5676 5678 5680 5682 5683 5685 5687 5688 5691 5692 5694 5696 5697 5699 5700 5702 5704 5706 5707 5708 5709 5711 5713 5714 5715 5717 5717 5719 5720 5721 5722 5723 5723 5724 5724 5725 5726 5727 5727 5727 5727
5559 5562 5565 5567 5569 5571 5573 5576 5580 5583 5586 5589 5592 5596 5599 5601 5604 5607 5611 5614 5617 5620 5622 5624 5625 5627 5628 5631 5634 5636 5638 5640 5642 5644 5646 5648 5650 5653 5655 5657 5659 5661 5663 5665 5667 5670 5672 5674 5676 5678 5680 5681 5683 5685 5687 5689 5690 5692 5693 5695 5697 5698 5700 5701 5703 5704 5706 5707 5709 5710 5712 5713 5714 5715 5716 5717 5718 5720 5721 5721 5721 5722 5723 5724 5725 5725 5725 5725
5559 5561 5564 5567 5570 5572 5575 5578 5581 5585 5588 5590 5593 5596 5599 5602 5605 5608 5611 5613 5616 5618 5620 5622 5624 5626 5627 5629 5632 5635 5637 5639 5641 5643 5645 5647 5649 5651 5653 5655 5658 5660 5662 5664 5665 5667 5670 5672 5673 5676 5678 5680 5681 5683 5684 5686 5688 5689 5691 5692 5694 5695 5697 5699 5700 5702 5703 5705 5707 5708 5709 5710 5711 5712 5713 5714 5716 5717 5718 5719 5720 5720 5721 5722 5722 5722 5722 5722
5559 5562 5564 5567 5571 5573 5576 5579 5582 5585 5588 5590 5593 5596 5598 5602 5605 5607 5610 5612 5614 5616 5618 5621 5623 5625 5627 5628 5631 5633 5636 5638 5639 5641 5643 5645 5647 5650 5652 5654 5656 5658 5660 5662 5664 5665 5667 5669 5671 5673 5675 5677 5679 5680 5682 5684 5685 5686 5688 5689 5691 5692 5694 5696 5698 5700 5701 5703 5704 5705 5706 5707 5708 5709 5710 5711 5712 5714 5715 5716 5717 5717 5718 5719 5719 5720 5720 5720